When you browse on this site, cookies collect data to enhance your experience and personalize the content and advertising you see.
Visit our Privacy Policy to learn more. By continuing to use the site, you agree to this use of cookies and data.
  • In Romania
  • List of Countries
  • For 7 days
  • Water Temperature
  • Weather Map
  • Weather Widgets
  • user-avatar
    Login

    Hourly Weather Sankt Polten

    Today, 2 June, Tuesday

    Time Temperature Precipitation Wind Pressure Humidity
    00:00 +12°C° 0 mm 1 mps 737 mmHg 94%
    01:00 +12°C° 0 mm 1 mps 737 mmHg 95%
    02:00 +12°C° 0 mm 1 mps 737 mmHg 95%
    03:00 +11°C° 0 mm 1 mps 737 mmHg 95%
    04:00 +11°C° 0 mm 1 mps 736 mmHg 95%
    05:00 +12°C° 0 mm 1 mps 736 mmHg 92%
    06:00 +14°C° 0 mm 1 mps 736 mmHg 89%
    07:00 +15°C° 0 mm 2 mps 736 mmHg 88%
    08:00 +17°C° 0.2 mm 3 mps 736 mmHg 81%
    09:00 +18°C° 0.2 mm 3 mps 736 mmHg 75%
    10:00 +19°C° 0.2 mm 4 mps 735 mmHg 69%
    11:00 +19°C° 1.1 mm 4 mps 735 mmHg 73%
    12:00 +18°C° 1.1 mm 4 mps 735 mmHg 77%
    13:00 +18°C° 1.1 mm 3 mps 734 mmHg 81%
    14:00 +18°C° 1 mm 3 mps 734 mmHg 81%
    15:00 +18°C° 1 mm 3 mps 734 mmHg 81%
    16:00 +18°C° 1 mm 3 mps 733 mmHg 81%
    17:00 +17°C° 0.8 mm 2 mps 733 mmHg 84%
    18:00 +16°C° 0.8 mm 2 mps 733 mmHg 87%
    19:00 +15°C° 0.8 mm 1 mps 733 mmHg 90%
    20:00 +15°C° 0.8 mm 1 mps 733 mmHg 91%
    21:00 +14°C° 0.8 mm 2 mps 733 mmHg 93%
    22:00 +13°C° 0.8 mm 2 mps 733 mmHg 95%
    23:00 +13°C° 0.6 mm 2 mps 732 mmHg 95%

    Tomorrow, 3 June, Wednesday

    Time Temperature Precipitation Wind Pressure Humidity
    00:00 +13°C° 0.6 mm 2 mps 732 mmHg 95%
    01:00 +13°C° 0.6 mm 2 mps 732 mmHg 95%
    02:00 +13°C° 0.4 mm 2 mps 732 mmHg 96%
    03:00 +12°C° 0.4 mm 2 mps 731 mmHg 96%
    04:00 +12°C° 0.4 mm 2 mps 731 mmHg 96%
    05:00 +13°C° 0.2 mm 2 mps 730 mmHg 93%
    06:00 +14°C° 0.2 mm 2 mps 730 mmHg 91%
    07:00 +16°C° 0.2 mm 2 mps 730 mmHg 89%
    08:00 +17°C° 0.5 mm 3 mps 730 mmHg 83%
    09:00 +18°C° 0.5 mm 3 mps 730 mmHg 77%
    10:00 +20°C° 0.5 mm 3 mps 729 mmHg 71%
    11:00 +20°C° 1.2 mm 3 mps 729 mmHg 72%
    12:00 +20°C° 1.2 mm 3 mps 729 mmHg 73%
    13:00 +21°C° 1.2 mm 2 mps 728 mmHg 73%
    14:00 +21°C° 1 mm 2 mps 728 mmHg 73%
    15:00 +22°C° 1 mm 1 mps 728 mmHg 72%
    16:00 +20°C° 1 mm 0 mps 727 mmHg 72%
    17:00 +21°C° 0.2 mm 1 mps 727 mmHg 76%
    18:00 +19°C° 0.2 mm 1 mps 727 mmHg 80%
    19:00 +18°C° 0.2 mm 1 mps 727 mmHg 84%
    20:00 +16°C° 0 mm 1 mps 727 mmHg 85%
    21:00 +15°C° 0 mm 1 mps 727 mmHg 86%
    22:00 +13°C° 0 mm 1 mps 727 mmHg 87%
    23:00 +13°C° 0 mm 1 mps 726 mmHg 87%

    Day after tomorrow, 4 June, Thursday

    Time Temperature Precipitation Wind Pressure Humidity
    00:00 +13°C° 0 mm 1 mps 726 mmHg 88%
    01:00 +12°C° 0 mm 1 mps 725 mmHg 88%
    02:00 +12°C° 0 mm 1 mps 725 mmHg 90%
    03:00 +12°C° 0 mm 1 mps 725 mmHg 91%
    04:00 +11°C° 0 mm 1 mps 724 mmHg 93%
    05:00 +13°C° 0 mm 1 mps 724 mmHg 89%
    06:00 +15°C° 0 mm 1 mps 724 mmHg 85%
    07:00 +16°C° 0 mm 1 mps 724 mmHg 82%
    08:00 +19°C° 0 mm 1 mps 724 mmHg 76%
    09:00 +20°C° 0 mm 1 mps 724 mmHg 71%
    10:00 +20°C° 0 mm 2 mps 724 mmHg 66%
    11:00 +22°C° 0 mm 1 mps 723 mmHg 64%
    12:00 +23°C° 0 mm 1 mps 723 mmHg 62%
    13:00 +25°C° 0 mm 1 mps 722 mmHg 61%
    14:00 +24°C° 0.3 mm 2 mps 722 mmHg 66%
    15:00 +24°C° 0.3 mm 2 mps 721 mmHg 70%
    16:00 +24°C° 0.3 mm 3 mps 721 mmHg 75%
    17:00 +21°C° 0.3 mm 2 mps 720 mmHg 79%
    18:00 +21°C° 0.3 mm 1 mps 720 mmHg 84%
    19:00 +20°C° 0.3 mm 1 mps 720 mmHg 88%
    20:00 +18°C° 0.2 mm 2 mps 720 mmHg 90%
    21:00 +17°C° 0.2 mm 2 mps 720 mmHg 92%
    22:00 +16°C° 0.2 mm 3 mps 720 mmHg 93%
    23:00 +16°C° 0.1 mm 3 mps 720 mmHg 94%

    5 June, Friday

    Time Temperature Precipitation Wind Pressure Humidity
    00:00 +14°C° 0.1 mm 3 mps 720 mmHg 95%
    01:00 +14°C° 0.1 mm 3 mps 720 mmHg 96%
    02:00 +14°C° 0.1 mm 3 mps 720 mmHg 96%
    03:00 +15°C° 0.1 mm 2 mps 720 mmHg 97%
    04:00 +14°C° 0.1 mm 2 mps 720 mmHg 97%
    05:00 +14°C° 1 mm 2 mps 720 mmHg 97%
    06:00 +14°C° 1 mm 2 mps 721 mmHg 97%
    07:00 +14°C° 1 mm 2 mps 721 mmHg 97%
    08:00 +14°C° 1.3 mm 2 mps 721 mmHg 97%
    09:00 +13°C° 1.3 mm 3 mps 722 mmHg 96%
    10:00 +13°C° 1.3 mm 3 mps 722 mmHg 96%
    11:00 +13°C° 1.3 mm 3 mps 723 mmHg 96%
    12:00 +13°C° 1.3 mm 3 mps 724 mmHg 95%
    13:00 +13°C° 1.3 mm 3 mps 724 mmHg 95%
    14:00 +13°C° 0.3 mm 3 mps 725 mmHg 93%
    15:00 +13°C° 0.3 mm 3 mps 725 mmHg 90%
    16:00 +14°C° 0.3 mm 3 mps 726 mmHg 88%
    17:00 +14°C° 0 mm 3 mps 726 mmHg 87%
    18:00 +15°C° 0 mm 2 mps 726 mmHg 86%
    19:00 +15°C° 0 mm 2 mps 727 mmHg 85%
    20:00 +14°C° 0 mm 2 mps 728 mmHg 85%
    21:00 +13°C° 0 mm 2 mps 728 mmHg 86%
    22:00 +12°C° 0 mm 2 mps 729 mmHg 87%
    23:00 +12°C° 0 mm 2 mps 729 mmHg 87%

    6 June, Saturday

    Time Temperature Precipitation Wind Pressure Humidity
    00:00 +10°C° 0 mm 2 mps 729 mmHg 87%
    01:00 +10°C° 0 mm 2 mps 729 mmHg 87%
    02:00 +10°C° 0 mm 2 mps 729 mmHg 86%
    03:00 +9°C° 0 mm 2 mps 730 mmHg 85%
    04:00 +10°C° 0 mm 1 mps 730 mmHg 85%
    05:00 +12°C° 0 mm 1 mps 730 mmHg 78%
    06:00 +15°C° 0 mm 1 mps 730 mmHg 72%
    07:00 +18°C° 0 mm 1 mps 731 mmHg 66%
    08:00 +20°C° 0 mm 1 mps 731 mmHg 59%
    09:00 +22°C° 0 mm 1 mps 731 mmHg 53%
    10:00 +23°C° 0 mm 1 mps 731 mmHg 47%
    11:00 +24°C° 0 mm 1 mps 731 mmHg 48%
    12:00 +24°C° 0 mm 1 mps 730 mmHg 48%
    13:00 +24°C° 0 mm 1 mps 730 mmHg 49%
    14:00 +24°C° 0 mm 1 mps 730 mmHg 51%
    15:00 +24°C° 0 mm 1 mps 730 mmHg 53%
    16:00 +24°C° 0 mm 2 mps 729 mmHg 55%
    17:00 +23°C° 0 mm 1 mps 729 mmHg 63%
    18:00 +22°C° 0 mm 1 mps 729 mmHg 71%
    19:00 +20°C° 0 mm 1 mps 729 mmHg 79%
    20:00 +19°C° 0 mm 1 mps 729 mmHg 81%
    21:00 +18°C° 0 mm 1 mps 730 mmHg 83%
    22:00 +15°C° 0 mm 1 mps 730 mmHg 85%
    23:00 +15°C° 0 mm 1 mps 730 mmHg 87%

    7 June, Sunday

    Time Temperature Precipitation Wind Pressure Humidity
    00:00 +15°C° 0 mm 1 mps 730 mmHg 88%
    01:00 +14°C° 0 mm 1 mps 730 mmHg 89%
    02:00 +14°C° 0 mm 1 mps 730 mmHg 91%
    03:00 +13°C° 0 mm 1 mps 730 mmHg 92%
    04:00 +13°C° 0 mm 1 mps 730 mmHg 94%
    05:00 +14°C° 0 mm 1 mps 730 mmHg 90%
    06:00 +16°C° 0 mm 1 mps 730 mmHg 85%
    07:00 +16°C° 0 mm 0 mps 730 mmHg 81%
    08:00 +19°C° 0 mm 1 mps 730 mmHg 78%
    09:00 +20°C° 0 mm 1 mps 730 mmHg 75%
    10:00 +22°C° 0 mm 1 mps 730 mmHg 72%
    11:00 +22°C° 0.4 mm 1 mps 729 mmHg 73%
    12:00 +23°C° 0.4 mm 1 mps 729 mmHg 73%
    13:00 +23°C° 0.4 mm 1 mps 729 mmHg 74%
    14:00 +23°C° 0.9 mm 1 mps 728 mmHg 75%
    15:00 +23°C° 0.9 mm 1 mps 728 mmHg 77%
    16:00 +23°C° 0.9 mm 1 mps 727 mmHg 79%
    17:00 +22°C° 1.3 mm 1 mps 728 mmHg 83%
    18:00 +21°C° 1.3 mm 1 mps 728 mmHg 87%
    19:00 +20°C° 1.3 mm 1 mps 728 mmHg 91%
    20:00 +18°C° 1.6 mm 3 mps 729 mmHg 93%
    21:00 +15°C° 1.6 mm 4 mps 729 mmHg 94%
    22:00 +14°C° 1.6 mm 5 mps 730 mmHg 96%
    23:00 +13°C° 0.6 mm 5 mps 730 mmHg 96%
    Show more